Tracking 22130 objects as of 21-Jan-2021
HD Live streaming from Space Station
objects crossing your sky now

STARLINK-1928

Track STARLINK-1928 now!
10-day predictions
STARLINK-1928 is classified as:


NORAD ID: 46758
Int'l Code: 2020-074V
Perigee: 553.3 km
Apogee: 555.5 km
Inclination: 53.1 °
Period: 95.6 minutes
Semi major axis: 6925 km
RCS: Unknown
Launch date: October 24, 2020
Source: United States (US)
Launch site: AIR FORCE EASTERN TEST RANGE (AFETR)
aabbcc
Your satellite tracking list
Your tracking list is empty




NASA's NSSDC Master Catalog

Two Line Element Set (TLE):
1 46758U 20074V   21021.58335648  .00026419  00000-0  17870-2 0  9998
2 46758  53.0646  95.2578 0001561  54.3319 110.5719 15.06376598  1757
Source of the keplerian elements: AFSPC